Location: Arbon
(43.0005°N, 0.7472°E)
Time: 11:57:22
(UTC+00:00)

Cosmos 1833 Rocket - Pass Details

Date: 22 April 2026
Orbit: 831 x 838 km, 71.0° (Epoch: 16 May)

Event Time Altitude Azimuth Distance (km) Brightness Sun altitude
Exits shadow 23:01:14 31° 42° (NE) 1,433 4.1 -33.2°
Drops below altitude 10° 23:04:07 10° 31° (NNE) 2,448 5.6 -33.3°
Sets 23:06:35 0° 28° (NNE) 3,386 6.4 -33.4°
